Погода в Даховской

Россия / Республика Адыгея     44°13′42″N   40°12′04″E
темп.,
°C
ветер,
м/с
пор.,
м/с
влажн.,
%
обл.,
%
осадки,
мм/ч
давл.,
гПа
погр.,
м
20 июня, вс
вс2000:00+18ююз229681 0.0 101023
03:00+18зюз119596 0.0 101015
06:00+19ссв019492 0.0 101160
09:00+25ссв22703 0.0 1010725
12:00+27с325296 0.1 10111409
15:00+25св127190 1.1 10111048
18:00+25ссв226648 0.1 1011769
21:00+19ю22950 0.1 101220
21 июня, пн
пн2100:00+18ю21960 0.0 101116
03:00+18ю22940 0.0 101122
06:00+19ю11890 0.0 101142
09:00+26ссв21650 0.0 1010662
12:00+30ссв22512 0.0 10081427
15:00+29св435891 0.8 10081442
18:00+21ссз01910 10.2 101189
21:00+19ююв22940 10.2 101025
22 июня, вт
вт2200:00+18ююз32870 0.0 101034
03:00+17ююз22850 0.0 101131
06:00+19ююз11830 0.0 101124
09:00+26сз22550 0.0 1010541
12:00+29ссз32460 0.0 10091255
15:00+30с32463 0.1 10101554
18:00+26с24696 0.1 1011705
21:00+19ююз1196100 3.8 101313
23 июня, ср
ср2300:00+19всв119793 2.8 101336
03:00+18ююв229731 2.8 101436
06:00+19ю23965 0.0 101358
09:00+25ссз216591 0.0 1012578
12:00+28ссз32551 0.0 10131293
15:00+26св336449 1.2 1013958
18:00+25всв22683 0.7 1013537
21:00+19ю11936 0.8 101412
24 июня, чт
чт2400:00+19юз219330 0.1 101418
03:00+19зюз119081 0.8 101417
06:00+19зюз119790 2.6 101537
09:00+20сз229799 4.6 1016328
12:00+19сз1298100 2.1 1016281
15:00+20ююв119397 4.1 1016222
18:00+21юв118940 1.0 1015226
21:00+18ю11970 1.0 101515